This is the latest recevied weather packets stored in our database for station/object GW1545. If no packets are shown the sender has not sent any weather packets the latest 10 day(s).
| Time | Temp. | Humidity | Pressure | Rain* | Wind** | Luminosity | Snow |
|---|---|---|---|---|---|---|---|
| 1777547554 | 8.33° C | 85% | 1016.9 hPa | 0 mm | - | - | - |
| 1777543972 | 8.33° C | 91% | 1015.9 hPa | 0 mm | - | - | - |
| 1777541793 | 8.89° C | 89% | 1015.5 hPa | 0 mm | - | - | - |
| 1777541092 | 9.44° C | 88% | 1015.5 hPa | 0 mm | - | - | - |
| 1777539636 | 10° C | 88% | 1014.9 hPa | 0 mm | - | - | - |
| 1777533490 | 11.11° C | 94% | 1015.9 hPa | 0 mm | - | - | - |
| 1777533164 | 11.11° C | 95% | 1015.9 hPa | 0 mm | - | - | - |
| 1777529177 | 11.67° C | 96% | 1015.9 hPa | 0 mm | - | - | - |
| 1777525575 | 12.22° C | 95% | 1016.5 hPa | 0 mm | - | - | - |
| 1777523807 | 12.22° C | 94% | 1015.9 hPa | 0 mm | - | - | - |
| 1777522339 | 12.22° C | 95% | 1015.9 hPa | 0 mm | - | - | - |
| 1777519854 | 11.67° C | 96% | 1015.5 hPa | 4.83 mm | - | - | - |
| 1777518740 | 11.67° C | 95% | 1015.9 hPa | 4.83 mm | - | - | - |
| 1777518380 | 12.22° C | 95% | 1016.2 hPa | 4.83 mm | - | - | - |
| 1777515868 | 12.78° C | 93% | 1015.9 hPa | 4.83 mm | - | - | - |
| 1777515498 | 12.78° C | 93% | 1015.5 hPa | 4.83 mm | - | - | - |
| 1777515131 | 12.78° C | 93% | 1015.5 hPa | 4.83 mm | - | - | - |
| 1777512972 | 12.78° C | 92% | 1015.2 hPa | 4.83 mm | - | - | - |
| 1777507957 | 13.89° C | 87% | 1014.9 hPa | 4.83 mm | - | - | - |
| 1777507230 | 15° C | 84% | 1014.5 hPa | 4.83 mm | - | - | - |
| 1777506139 | 15.56° C | 81% | 1014.5 hPa | 4.83 mm | - | - | - |
| 1777500023 | 17.22° C | 84% | 1013.5 hPa | 4.83 mm | - | - | - |
| 1777497889 | 17.22° C | 88% | 1012.8 hPa | 4.83 mm | - | - | - |
| 1777492106 | 20° C | 87% | 1010.8 hPa | 3.05 mm | - | - | - |
| 1777491380 | 20.56° C | 85% | 1010.8 hPa | 3.05 mm | - | - | - |
* Rain since midnight (hover to see other rain measurements)
** Current wind speed in m/s (hover to see current wind gust speed)